"FILENAME","TIMESTAMP","SAMPLE","STATION","LATITUDE","LONGITUDE","SAMPLE_DATE","SAMPLE_TIME","DEPTH","DEPTH_UNITS","CHLOROPHYLLQ","CHLOROPHYLLV","CHLOROPHYLLU","DENSITYQ","DENSITYV","DENSITYU","DOQ","DOV","DOU","SALINITYQ","SALINITYV","SALINITYU","SUSOQ","SUSOV","SUSOU","TEMPQ","TEMPV","TEMPU","PHQ","PHV","PHU","OGQ","OGV","OGU","XMSQ","XMSV","XMSU",
"200310WQPL.csv","2008MAY29154821","1004032684","A1",  32.65933,-117.26200,"20031004",925,1,"m","",26.4909,"ug/L","",24.0214,"sigma-t","",9.38297,"mg/L","",33.305,"ppt","",,"","",17.8,"C","",8.269,"pH","",,"","",61,"%",
"200310WQPL.csv","2008MAY29154821","1004032685","A1",  32.65933,-117.26200,"20031004",925,12,"m","",4.5506,"ug/L","",24.499,"sigma-t","",7.77532,"mg/L","",33.2616,"ppt","",,"","",15.6,"C","",8.102,"pH","",,"","",82,"%",
"200310WQPL.csv","2008MAY29154821","1004032686","A1",  32.65933,-117.26200,"20031004",925,18,"m","",2.3343,"ug/L","",24.7255,"sigma-t","",6.34579,"mg/L","",33.2685,"ppt","",,"","",14.6,"C","",7.99,"pH","",,"","",86,"%",
"200310WQPL.csv","2008MAY29154821","1004032687","A6",  32.69267,-117.26967,"20031004",1026,1,"m","",19.0492,"ug/L","",23.8084,"sigma-t","",8.49442,"mg/L","",33.3649,"ppt","",,"","",18.9,"C","",8.274,"pH","",,"","",67,"%",
"200310WQPL.csv","2008MAY29154821","1004032688","A6",  32.69267,-117.26967,"20031004",1026,12,"m","",2.3412,"ug/L","",24.3679,"sigma-t","",6.95408,"mg/L","",33.3431,"ppt","",,"","",16.5,"C","",8.128,"pH","",,"","",86,"%",
"200310WQPL.csv","2008MAY29154821","1004032689","A6",  32.69267,-117.26967,"20031004",1026,18,"m","",1.4084,"ug/L","",24.7219,"sigma-t","",5.8795,"mg/L","",33.3068,"ppt","",,"","",14.7,"C","",7.978,"pH","",,"","",88,"%",
"200310WQPL.csv","2008MAY29154821","1004032690","A7",  32.67550,-117.26683,"20031004",959,1,"m","",18.4331,"ug/L","",23.9687,"sigma-t","",8.48901,"mg/L","",33.3257,"ppt","",,"","",18.1,"C","",8.242,"pH","",,"","",64,"%",
"200310WQPL.csv","2008MAY29154821","1004032691","A7",  32.67550,-117.26683,"20031004",959,12,"m","",3.0343,"ug/L","",24.5275,"sigma-t","",6.7406,"mg/L","",33.309,"ppt","",,"","",15.6,"C","",8.067,"pH","",,"","",85,"%",
"200310WQPL.csv","2008MAY29154821","1004032692","A7",  32.67550,-117.26683,"20031004",959,18,"m","",2.4372,"ug/L","",24.6577,"sigma-t","",5.95847,"mg/L","",33.2641,"ppt","",,"","",14.9,"C","",7.982,"pH","",,"","",86,"%",
"200310WQPL.csv","2008MAY29154821","1004032693","C4",  32.66583,-117.24967,"20031004",1159,1,"m","",19.7832,"ug/L","",23.9741,"sigma-t","",7.88405,"mg/L","",33.2697,"ppt","",,"","",17.9,"C","",8.141,"pH","",,"","",40,"%",
"200310WQPL.csv","2008MAY29154821","1004032694","C4",  32.66583,-117.24967,"20031004",1159,3,"m","",20.8392,"ug/L","",23.9868,"sigma-t","",7.70851,"mg/L","",33.2735,"ppt","",,"","",17.8,"C","",8.14,"pH","",,"","",40,"%",
"200310WQPL.csv","2008MAY29154821","1004032695","C4",  32.66583,-117.24967,"20031004",1159,9,"m","",2.2418,"ug/L","",24.586,"sigma-t","",4.73304,"mg/L","",33.33,"ppt","",,"","",15.5,"C","",7.934,"pH","",,"","",73,"%",
"200310WQPL.csv","2008MAY29154821","1004032696","C5",  32.67917,-117.25667,"20031004",1146,1,"m","",45.7753,"ug/L","",23.8975,"sigma-t","",9.77351,"mg/L","",33.3142,"ppt","",,"","",18.3,"C","",8.391,"pH","",,"","",48,"%",
"200310WQPL.csv","2008MAY29154821","1004032697","C5",  32.67917,-117.25667,"20031004",1146,3,"m","",43.9461,"ug/L","",23.9312,"sigma-t","",9.91635,"mg/L","",33.3299,"ppt","",,"","",18.3,"C","",8.389,"pH","",,"","",48,"%",
"200310WQPL.csv","2008MAY29154821","1004032698","C5",  32.67917,-117.25667,"20031004",1146,9,"m","",1.9496,"ug/L","",24.5478,"sigma-t","",3.50076,"mg/L","",33.3382,"ppt","",,"","",15.7,"C","",7.86,"pH","",,"","",78,"%",
"200310WQPL.csv","2008MAY29154821","1004032699","C6",  32.69367,-117.26133,"20031004",1136,1,"m","",50.5564,"ug/L","",23.8034,"sigma-t","",9.72666,"mg/L","",33.3467,"ppt","",,"","",18.8,"C","",8.409,"pH","",,"","",44,"%",
"200310WQPL.csv","2008MAY29154821","1004032700","C6",  32.69367,-117.26133,"20031004",1136,3,"m","",39.3861,"ug/L","",23.875,"sigma-t","",9.84206,"mg/L","",33.361,"ppt","",,"","",18.6,"C","",8.358,"pH","",,"","",43,"%",
"200310WQPL.csv","2008MAY29154821","1004032701","C6",  32.69367,-117.26133,"20031004",1136,9,"m","",1.7882,"ug/L","",24.6137,"sigma-t","",3.58287,"mg/L","",33.3691,"ppt","",,"","",15.5,"C","",7.871,"pH","",,"","",79,"%",
"200310WQPL.csv","2008MAY29154821","1004032702","C7",  32.71633,-117.27217,"20031004",1048,1,"m","",63.6731,"ug/L","",23.7987,"sigma-t","",9.25556,"mg/L","",33.3578,"ppt","",,"","",18.9,"C","",8.311,"pH","",,"","",38,"%",
"200310WQPL.csv","2008MAY29154821","1004032703","C7",  32.71633,-117.27217,"20031004",1048,12,"m","",4.8427,"ug/L","",24.0832,"sigma-t","",7.31144,"mg/L","",33.3819,"ppt","",,"","",17.8,"C","",8.232,"pH","",,"","",80,"%",
"200310WQPL.csv","2008MAY29154821","1004032704","C7",  32.71633,-117.27217,"20031004",1048,18,"m","",1.0823,"ug/L","",24.8898,"sigma-t","",5.59415,"mg/L","",33.28,"ppt","",,"","",13.8,"C","",7.887,"pH","",,"","",89,"%",
"200310WQPL.csv","2008MAY29154821","1004032705","C8",  32.73267,-117.27333,"20031004",1105,1,"m","",34.6595,"ug/L","",23.7098,"sigma-t","",9.25115,"mg/L","",33.3769,"ppt","",,"","",19.3,"C","",8.318,"pH","",,"","",53,"%",
"200310WQPL.csv","2008MAY29154821","1004032706","C8",  32.73267,-117.27333,"20031004",1105,12,"m","",5.001,"ug/L","",24.6838,"sigma-t","",6.77206,"mg/L","",33.4478,"ppt","",,"","",15.4,"C","",8.079,"pH","",,"","",83,"%",
"200310WQPL.csv","2008MAY29154821","1004032707","C8",  32.73267,-117.27333,"20031004",1105,18,"m","",.9777,"ug/L","",24.9068,"sigma-t","",5.38842,"mg/L","",33.2871,"ppt","",,"","",13.8,"C","",7.872,"pH","",,"","",87,"%",
"200310WQPL.csv","2008MAY29154821","1007032717","A1",  32.65933,-117.26200,"20031007",1229,1,"m","",60.5512,"ug/L","",24.0125,"sigma-t","",9.91128,"mg/L","",33.2396,"ppt","",,"","",17.6,"C","",8.473,"pH","",,"","",35,"%",
"200310WQPL.csv","2008MAY29154821","1007032718","A1",  32.65933,-117.26200,"20031007",1229,12,"m","",7.9899,"ug/L","",24.2313,"sigma-t","",10.03627,"mg/L","",33.2483,"ppt","",,"","",16.7,"C","",8.298,"pH","",,"","",80,"%",
"200310WQPL.csv","2008MAY29154821","1007032719","A1",  32.65933,-117.26200,"20031007",1229,18,"m","",1.773,"ug/L","",24.5655,"sigma-t","",7.15025,"mg/L","",33.1335,"ppt","",,"","",14.9,"C","",8.009,"pH","",,"","",86,"%",
"200310WQPL.csv","2008MAY29154821","1007032720","A6",  32.69267,-117.26967,"20031007",1114,1,"m","",52.1178,"ug/L","",24.0925,"sigma-t","",9.90115,"mg/L","",33.2728,"ppt","",,"","",17.4,"C","",8.398,"pH","",,"","",45,"%",
"200310WQPL.csv","2008MAY29154821","1007032721","A6",  32.69267,-117.26967,"20031007",1114,12,"m","",45.9474,"ug/L","",24.1181,"sigma-t","",9.95502,"mg/L","",33.2704,"ppt","",,"","",17.3,"C","",8.371,"pH","",,"","",54,"%",
"200310WQPL.csv","2008MAY29154821","1007032722","A6",  32.69267,-117.26967,"20031007",1114,18,"m","",44.1156,"ug/L","",24.376,"sigma-t","",7.79811,"mg/L","",33.3176,"ppt","",,"","",16.3,"C","",8.285,"pH","",,"","",51,"%",
"200310WQPL.csv","2008MAY29154821","1007032723","A7",  32.67550,-117.26683,"20031007",1143,1,"m","",64.9568,"ug/L","",24.0126,"sigma-t","",9.84798,"mg/L","",33.2636,"ppt","",,"","",17.7,"C","",8.431,"pH","",,"","",38,"%",
"200310WQPL.csv","2008MAY29154821","1007032724","A7",  32.67550,-117.26683,"20031007",1143,12,"m","",48.1872,"ug/L","",24.1522,"sigma-t","",9.98496,"mg/L","",33.2592,"ppt","",,"","",17.1,"C","",8.361,"pH","",,"","",50,"%",
"200310WQPL.csv","2008MAY29154821","1007032725","A7",  32.67550,-117.26683,"20031007",1143,18,"m","",3.6987,"ug/L","",24.345,"sigma-t","",6.77454,"mg/L","",33.2594,"ppt","",,"","",16.3,"C","",8.116,"pH","",,"","",79,"%",
"200310WQPL.csv","2008MAY29154821","1007032726","C4",  32.66583,-117.24967,"20031007",1241,1,"m","",11.9771,"ug/L","",23.9867,"sigma-t","",8.84895,"mg/L","",33.2949,"ppt","",,"","",17.9,"C","",8.222,"pH","",,"","",71,"%",
"200310WQPL.csv","2008MAY29154821","1007032727","C4",  32.66583,-117.24967,"20031007",1241,3,"m","",62.9526,"ug/L","",24.0716,"sigma-t","",7.56595,"mg/L","",33.2996,"ppt","",,"","",17.6,"C","",8.191,"pH","",,"","",64,"%",
"200310WQPL.csv","2008MAY29154821","1007032728","C4",  32.66583,-117.24967,"20031007",1241,9,"m","",1.9279,"ug/L","",24.6259,"sigma-t","",3.98411,"mg/L","",33.3447,"ppt","",,"","",15.3,"C","",7.881,"pH","",,"","",80,"%",
"200310WQPL.csv","2008MAY29154821","1007032729","C5",  32.67917,-117.25667,"20031007",1134,1,"m","",64.7632,"ug/L","",24.0303,"sigma-t","",6.46169,"mg/L","",33.3088,"ppt","",,"","",17.8,"C","",8.153,"pH","",,"","",32,"%",
"200310WQPL.csv","2008MAY29154821","1007032730","C5",  32.67917,-117.25667,"20031007",1134,3,"m","",22.8046,"ug/L","",24.1958,"sigma-t","",4.547,"mg/L","",33.341,"ppt","",,"","",17.2,"C","",8.019,"pH","",,"","",42,"%",
"200310WQPL.csv","2008MAY29154821","1007032731","C5",  32.67917,-117.25667,"20031007",1134,9,"m","",1.1445,"ug/L","",24.709,"sigma-t","",3.82114,"mg/L","",33.276,"ppt","",,"","",14.7,"C","",7.794,"pH","",,"","",87,"%",
"200310WQPL.csv","2008MAY29154821","1007032732","C6",  32.69367,-117.26133,"20031007",1125,1,"m","",87.1617,"ug/L","",23.8916,"sigma-t","",6.27937,"mg/L","",33.3177,"ppt","",,"","",18.4,"C","",8.129,"pH","",,"","",1,"%",
"200310WQPL.csv","2008MAY29154821","1007032733","C6",  32.69367,-117.26133,"20031007",1125,3,"m","",86.9527,"ug/L","",23.9843,"sigma-t","",4.88523,"mg/L","",33.3371,"ppt","",,"","",18.1,"C","",7.99,"pH","",,"","",9,"%",
"200310WQPL.csv","2008MAY29154821","1007032734","C6",  32.69367,-117.26133,"20031007",1125,9,"m","",1.4648,"ug/L","",24.7463,"sigma-t","",3.33822,"mg/L","",33.2885,"ppt","",,"","",14.6,"C","",7.745,"pH","",,"","",84,"%",
"200310WQPL.csv","2008MAY29154821","1007032735","C7",  32.71633,-117.27217,"20031007",1101,1,"m","",7.0579,"ug/L","",23.9308,"sigma-t","",6.76094,"mg/L","",33.2833,"ppt","",,"","",18.1,"C","",8.272,"pH","",,"","",58,"%",
"200310WQPL.csv","2008MAY29154821","1007032736","C7",  32.71633,-117.27217,"20031007",1101,12,"m","",7.1772,"ug/L","",24.8216,"sigma-t","",5.73205,"mg/L","",33.4064,"ppt","",,"","",14.6,"C","",7.993,"pH","",,"","",84,"%",
"200310WQPL.csv","2008MAY29154821","1007032737","C7",  32.71633,-117.27217,"20031007",1101,18,"m","",1.44,"ug/L","",24.8459,"sigma-t","",5.43398,"mg/L","",33.1032,"ppt","",,"","",13.4,"C","",7.848,"pH","",,"","",88,"%",
"200310WQPL.csv","2008MAY29154821","1007032738","C8",  32.73267,-117.27333,"20031007",1030,1,"m","",34.6995,"ug/L","",23.8751,"sigma-t","",9.04034,"mg/L","",33.3502,"ppt","",,"","",18.5,"C","",8.315,"pH","",,"","",55,"%",
"200310WQPL.csv","2008MAY29154821","1007032739","C8",  32.73267,-117.27333,"20031007",1030,12,"m","",5.636,"ug/L","",24.9918,"sigma-t","",5.47875,"mg/L","",33.3333,"ppt","",,"","",13.5,"C","",7.87,"pH","",,"","",84,"%",
"200310WQPL.csv","2008MAY29154821","1007032740","C8",  32.73267,-117.27333,"20031007",1030,18,"m","",1.9865,"ug/L","",24.9521,"sigma-t","",5.60571,"mg/L","",33.1857,"ppt","",,"","",13.2,"C","",7.863,"pH","",,"","",89,"%",
"200310WQPL.csv","2008MAY29154821","1008032757","F02",  32.75697,-117.27273,"20031008",1134,1,"m","",2.0982,"ug/L","",24.1118,"sigma-t","",7.80164,"mg/L","",33.2783,"ppt","",,"","",17.3,"C","",8.186,"pH","",,"","",86,"%",
"200310WQPL.csv","2008MAY29154821","1008032758","F02",  32.75697,-117.27273,"20031008",1134,12,"m","",1.7208,"ug/L","",24.9028,"sigma-t","",5.93359,"mg/L","",33.2556,"ppt","",,"","",13.7,"C","",7.903,"pH","",,"","",89,"%",
"200310WQPL.csv","2008MAY29154821","1008032759","F02",  32.75697,-117.27273,"20031008",1134,18,"m","",2.1769,"ug/L","",25.0561,"sigma-t","",5.58578,"mg/L","",33.276,"ppt","",,"","",13,"C","",7.873,"pH","",,"","",89,"%",
"200310WQPL.csv","2008MAY29154821","1008032760","F03",  32.78183,-117.27242,"20031008",1120,1,"m","",4.0091,"ug/L","",23.9741,"sigma-t","",8.35296,"mg/L","",33.3251,"ppt","",,"","",18.1,"C","",8.232,"pH","",,"","",76,"%",
"200310WQPL.csv","2008MAY29154821","1008032761","F03",  32.78183,-117.27242,"20031008",1120,12,"m","",15.4267,"ug/L","",24.4918,"sigma-t","",8.55807,"mg/L","",33.3294,"ppt","",,"","",15.9,"C","",8.196,"pH","",,"","",70,"%",
"200310WQPL.csv","2008MAY29154821","1008032762","F03",  32.78183,-117.27242,"20031008",1120,18,"m","",2.0182,"ug/L","",24.9281,"sigma-t","",6.04408,"mg/L","",33.2679,"ppt","",,"","",13.6,"C","",7.92,"pH","",,"","",89,"%",
"200310WQPL.csv","2008MAY29154821","1008032763","F11",  32.72555,-117.29463,"20031008",824,1,"m","",87.212,"ug/L","",24.0559,"sigma-t","",8.49336,"mg/L","",33.3122,"ppt","",,"","",17.7,"C","",8.242,"pH","",,"","",12,"%",
"200310WQPL.csv","2008MAY29154821","1008032764","F11",  32.72555,-117.29463,"20031008",824,25,"m","",1.7782,"ug/L","",25.0961,"sigma-t","",5.57091,"mg/L","",33.258,"ppt","",,"","",12.7,"C","",7.849,"pH","",,"","",91,"%",
"200310WQPL.csv","2008MAY29154821","1008032765","F11",  32.72555,-117.29463,"20031008",824,60,"m","",1.6918,"ug/L","",25.3609,"sigma-t","",5.21102,"mg/L","",33.3461,"ppt","",,"","",11.7,"C","",7.823,"pH","",,"","",85,"%",
"200310WQPL.csv","2008MAY29154821","1008032766","F12",  32.74658,-117.30207,"20031008",1034,1,"m","",7.1813,"ug/L","",24.0343,"sigma-t","",8.50654,"mg/L","",33.3154,"ppt","",,"","",17.8,"C","",8.248,"pH","",,"","",76,"%",
"200310WQPL.csv","2008MAY29154821","1008032767","F12",  32.74658,-117.30207,"20031008",1034,60,"m","",1.474,"ug/L","",25.3765,"sigma-t","",5.15998,"mg/L","",33.3584,"ppt","",,"","",11.7,"C","",7.841,"pH","",,"","",85,"%",
"200310WQPL.csv","2008MAY29154821","1008032768","F12",  32.74658,-117.30207,"20031008",1034,25,"m","",2.1629,"ug/L","",24.9829,"sigma-t","",5.89255,"mg/L","",33.2504,"ppt","",,"","",13.3,"C","",7.892,"pH","",,"","",90,"%",
"200310WQPL.csv","2008MAY29154821","1008032769","F13",  32.76538,-117.30720,"20031008",1047,60,"m","",1.3968,"ug/L","",25.3512,"sigma-t","",5.11148,"mg/L","",33.3425,"ppt","",,"","",11.7,"C","",7.828,"pH","",,"","",85,"%",
"200310WQPL.csv","2008MAY29154821","1008032770","F13",  32.76538,-117.30720,"20031008",1047,1,"m","",3.9919,"ug/L","",24.0209,"sigma-t","",8.06561,"mg/L","",33.3245,"ppt","",,"","",17.9,"C","",8.216,"pH","",,"","",81,"%",
"200310WQPL.csv","2008MAY29154821","1008032771","F13",  32.76538,-117.30720,"20031008",1047,25,"m","",4.462,"ug/L","",25.0009,"sigma-t","",5.945,"mg/L","",33.2476,"ppt","",,"","",13.2,"C","",7.889,"pH","",,"","",89,"%",
"200310WQPL.csv","2008MAY29154821","1008032772","F14",  32.78157,-117.31142,"20031008",1102,60,"m","",1.3732,"ug/L","",25.3448,"sigma-t","",5.13899,"mg/L","",33.3382,"ppt","",,"","",11.8,"C","",7.831,"pH","",,"","",86,"%",
"200310WQPL.csv","2008MAY29154821","1008032773","F14",  32.78157,-117.31142,"20031008",1102,1,"m","",3.3484,"ug/L","",23.9323,"sigma-t","",8.94392,"mg/L","",33.3154,"ppt","",,"","",18.2,"C","",8.287,"pH","",,"","",82,"%",
"200310WQPL.csv","2008MAY29154821","1008032774","F14",  32.78157,-117.31142,"20031008",1102,25,"m","",4.8787,"ug/L","",25.0079,"sigma-t","",5.65574,"mg/L","",33.2631,"ppt","",,"","",13.2,"C","",7.878,"pH","",,"","",89,"%",
"200310WQPL.csv","2008MAY29154821","1008032775","F23",  32.74188,-117.33042,"20031008",846,60,"m","",1.6376,"ug/L","",25.3362,"sigma-t","",5.82222,"mg/L","",33.31,"ppt","",,"","",11.7,"C","",7.897,"pH","",,"","",92,"%",
"200310WQPL.csv","2008MAY29154821","1008032776","F23",  32.74188,-117.33042,"20031008",846,1,"m","",7.7526,"ug/L","",23.843,"sigma-t","",7.92951,"mg/L","",33.3437,"ppt","",,"","",18.7,"C","",8.208,"pH","",,"","",80,"%",
"200310WQPL.csv","2008MAY29154821","1008032777","F23",  32.74188,-117.33042,"20031008",846,25,"m","",1.7766,"ug/L","",24.9172,"sigma-t","",6.66661,"mg/L","",33.2454,"ppt","",,"","",13.6,"C","",7.909,"pH","",,"","",91,"%",
"200310WQPL.csv","2008MAY29154821","1008032778","F23",  32.74188,-117.33042,"20031008",846,80,"m","",1.3554,"ug/L","",25.5379,"sigma-t","",4.64094,"mg/L","",33.465,"ppt","",,"","",11.2,"C","",7.771,"pH","",,"","",87,"%",
"200310WQPL.csv","2008MAY29154821","1008032779","F24",  32.76122,-117.33645,"20031008",1015,25,"m","",3.6666,"ug/L","",24.645,"sigma-t","",7.32867,"mg/L","",33.2318,"ppt","",,"","",14.8,"C","",8.076,"pH","",,"","",89,"%",
"200310WQPL.csv","2008MAY29154821","1008032780","F24",  32.76122,-117.33645,"20031008",1015,60,"m","",1.6286,"ug/L","",25.2921,"sigma-t","",6.05425,"mg/L","",33.2863,"ppt","",,"","",11.8,"C","",7.914,"pH","",,"","",92,"%",
"200310WQPL.csv","2008MAY29154821","1008032781","F24",  32.76122,-117.33645,"20031008",1015,80,"m","",1.3361,"ug/L","",25.4934,"sigma-t","",4.70806,"mg/L","",33.4339,"ppt","",,"","",11.3,"C","",7.792,"pH","",,"","",84,"%",
"200310WQPL.csv","2008MAY29154821","1008032782","F24",  32.76122,-117.33645,"20031008",1015,1,"m","",3.5762,"ug/L","",23.8952,"sigma-t","",8.32323,"mg/L","",33.3355,"ppt","",,"","",18.4,"C","",8.253,"pH","",,"","",83,"%",
"200310WQPL.csv","2008MAY29154821","1008032783","F25",  32.77895,-117.34358,"20031008",1001,25,"m","",2.3977,"ug/L","",24.7609,"sigma-t","",7.05953,"mg/L","",33.2584,"ppt","",,"","",14.4,"C","",8.009,"pH","",,"","",90,"%",
"200310WQPL.csv","2008MAY29154821","1008032784","F25",  32.77895,-117.34358,"20031008",1001,60,"m","",1.7461,"ug/L","",25.3125,"sigma-t","",6.17022,"mg/L","",33.3032,"ppt","",,"","",11.8,"C","",7.905,"pH","",,"","",92,"%",
"200310WQPL.csv","2008MAY29154821","1008032785","F25",  32.77895,-117.34358,"20031008",1001,80,"m","",1.3709,"ug/L","",25.4842,"sigma-t","",4.66077,"mg/L","",33.4259,"ppt","",,"","",11.4,"C","",7.784,"pH","",,"","",85,"%",
"200310WQPL.csv","2008MAY29154821","1008032786","F25",  32.77895,-117.34358,"20031008",1001,1,"m","",4.2592,"ug/L","",23.8724,"sigma-t","",8.08413,"mg/L","",33.3628,"ppt","",,"","",18.6,"C","",8.247,"pH","",,"","",82,"%",
"200310WQPL.csv","2008MAY29154821","1008032787","F34",  32.73890,-117.34937,"20031008",901,25,"m","",2.9157,"ug/L","",24.8246,"sigma-t","",7.32457,"mg/L","",33.2696,"ppt","",,"","",14.1,"C","",8.045,"pH","",,"","",90,"%",
"200310WQPL.csv","2008MAY29154821","1008032788","F34",  32.73890,-117.34937,"20031008",901,60,"m","",1.7188,"ug/L","",25.3161,"sigma-t","",6.20479,"mg/L","",33.2916,"ppt","",,"","",11.7,"C","",7.919,"pH","",,"","",92,"%",
"200310WQPL.csv","2008MAY29154821","1008032789","F34",  32.73890,-117.34937,"20031008",901,80,"m","",1.365,"ug/L","",25.4514,"sigma-t","",5.03272,"mg/L","",33.3666,"ppt","",,"","",11.3,"C","",7.793,"pH","",,"","",88,"%",
"200310WQPL.csv","2008MAY29154821","1008032790","F34",  32.73890,-117.34937,"20031008",901,1,"m","",9.9034,"ug/L","",23.7902,"sigma-t","",7.85708,"mg/L","",33.3686,"ppt","",,"","",18.9,"C","",8.234,"pH","",,"","",78,"%",
"200310WQPL.csv","2008MAY29154821","1008032791","F34",  32.73890,-117.34937,"20031008",901,98,"m","",1.2801,"ug/L","",25.6586,"sigma-t","",4.53105,"mg/L","",33.5695,"ppt","",,"","",11,"C","",7.773,"pH","",,"","",88,"%",
"200310WQPL.csv","2008MAY29154821","1008032792","F35",  32.75770,-117.36338,"20031008",921,1,"m","",3.5768,"ug/L","",23.7729,"sigma-t","",7.58333,"mg/L","",33.3641,"ppt","",,"","",19,"C","",8.218,"pH","",,"","",85,"%",
"200310WQPL.csv","2008MAY29154821","1008032793","F35",  32.75770,-117.36338,"20031008",921,25,"m","",2.9603,"ug/L","",24.6183,"sigma-t","",8.17568,"mg/L","",33.1902,"ppt","",,"","",14.8,"C","",8.126,"pH","",,"","",91,"%",
"200310WQPL.csv","2008MAY29154821","1008032794","F35",  32.75770,-117.36338,"20031008",921,60,"m","",2.1035,"ug/L","",25.2615,"sigma-t","",6.31547,"mg/L","",33.2748,"ppt","",,"","",11.9,"C","",7.957,"pH","",,"","",92,"%",
"200310WQPL.csv","2008MAY29154821","1008032795","F35",  32.75770,-117.36338,"20031008",921,80,"m","",1.6804,"ug/L","",25.4297,"sigma-t","",5.48315,"mg/L","",33.3727,"ppt","",,"","",11.4,"C","",7.876,"pH","",,"","",92,"%",
"200310WQPL.csv","2008MAY29154821","1008032796","F35",  32.75770,-117.36338,"20031008",921,98,"m","",1.4655,"ug/L","",25.6808,"sigma-t","",4.43922,"mg/L","",33.5937,"ppt","",,"","",11,"C","",7.782,"pH","",,"","",84,"%",
"200310WQPL.csv","2008MAY29154821","1008032797","F36",  32.77678,-117.37457,"20031008",944,1,"m","",2.4222,"ug/L","",23.6924,"sigma-t","",7.51236,"mg/L","",33.394,"ppt","",,"","",19.4,"C","",8.218,"pH","",,"","",85,"%",
"200310WQPL.csv","2008MAY29154821","1008032798","F36",  32.77678,-117.37457,"20031008",944,25,"m","",3.2013,"ug/L","",24.6208,"sigma-t","",8.14262,"mg/L","",33.1773,"ppt","",,"","",14.8,"C","",8.119,"pH","",,"","",90,"%",
"200310WQPL.csv","2008MAY29154821","1008032799","F36",  32.77678,-117.37457,"20031008",944,60,"m","",1.8737,"ug/L","",25.364,"sigma-t","",6.29506,"mg/L","",33.336,"ppt","",,"","",11.6,"C","",7.904,"pH","",,"","",92,"%",
"200310WQPL.csv","2008MAY29154821","1008032800","F36",  32.77678,-117.37457,"20031008",944,80,"m","",1.5995,"ug/L","",25.4272,"sigma-t","",5.61334,"mg/L","",33.3536,"ppt","",,"","",11.4,"C","",7.886,"pH","",,"","",92,"%",
"200310WQPL.csv","2008MAY29154821","1008032801","F36",  32.77678,-117.37457,"20031008",944,98,"m","",1.4201,"ug/L","",25.5754,"sigma-t","",4.95308,"mg/L","",33.4812,"ppt","",,"","",11.1,"C","",7.815,"pH","",,"","",89,"%",
"200310WQPL.csv","2008MAY29154821","1009032802","F07",  32.65113,-117.28000,"20031009",1052,1,"m","",9.9099,"ug/L","",24.1591,"sigma-t","",10.2297,"mg/L","",33.2371,"ppt","",,"","",17,"C","",8.361,"pH","",,"","",77,"%",
"200310WQPL.csv","2008MAY29154821","1009032803","F07",  32.65113,-117.28000,"20031009",1052,25,"m","",6.2862,"ug/L","",24.7229,"sigma-t","",7.52231,"mg/L","",33.233,"ppt","",,"","",14.5,"C","",8.058,"pH","",,"","",85,"%",
"200310WQPL.csv","2008MAY29154821","1009032804","F07",  32.65113,-117.28000,"20031009",1052,60,"m","",1.5262,"ug/L","",25.2544,"sigma-t","",5.84606,"mg/L","",33.293,"ppt","",,"","",12,"C","",7.877,"pH","",,"","",91,"%",
"200310WQPL.csv","2008MAY29154821","1009032805","F08",  32.67215,-117.28298,"20031009",1425,1,"m","",3.6641,"ug/L","",23.8274,"sigma-t","",8.7447,"mg/L","",33.3007,"ppt","",,"","",18.6,"C","",8.31,"pH","",,"","",84,"%",
"200310WQPL.csv","2008MAY29154821","1009032806","F08",  32.67215,-117.28298,"20031009",1425,60,"m","",1.6148,"ug/L","",25.2083,"sigma-t","",5.87784,"mg/L","",33.2678,"ppt","",,"","",12.2,"C","",7.908,"pH","",,"","",91,"%",
"200310WQPL.csv","2008MAY29154821","1009032807","F08",  32.67215,-117.28298,"20031009",1425,25,"m","",7.7873,"ug/L","",24.9004,"sigma-t","",6.1971,"mg/L","",33.2462,"ppt","",,"","",13.7,"C","",7.938,"pH","",,"","",83,"%",
"200310WQPL.csv","2008MAY29154821","1009032808","F09",  32.68555,-117.28632,"20031009",1407,60,"m","",1.4351,"ug/L","",25.3064,"sigma-t","",5.51038,"mg/L","",33.3289,"ppt","",,"","",11.9,"C","",7.872,"pH","",,"","",85,"%",
"200310WQPL.csv","2008MAY29154821","1009032809","F09",  32.68555,-117.28632,"20031009",1407,1,"m","",4.5373,"ug/L","",23.8677,"sigma-t","",9.13965,"mg/L","",33.3127,"ppt","",,"","",18.5,"C","",8.325,"pH","",,"","",81,"%",
"200310WQPL.csv","2008MAY29154821","1009032810","F09",  32.68555,-117.28632,"20031009",1407,25,"m","",3.1134,"ug/L","",24.8779,"sigma-t","",5.59562,"mg/L","",33.2485,"ppt","",,"","",13.8,"C","",7.899,"pH","",,"","",88,"%",
"200310WQPL.csv","2008MAY29154821","1009032811","F10",  32.70542,-117.29067,"20031009",1352,60,"m","",1.4027,"ug/L","",25.2486,"sigma-t","",5.68041,"mg/L","",33.306,"ppt","",,"","",12.1,"C","",7.88,"pH","",,"","",89,"%",
"200310WQPL.csv","2008MAY29154821","1009032812","F10",  32.70542,-117.29067,"20031009",1352,1,"m","",4.356,"ug/L","",23.8318,"sigma-t","",9.41646,"mg/L","",33.3274,"ppt","",,"","",18.6,"C","",8.345,"pH","",,"","",82,"%",
"200310WQPL.csv","2008MAY29154821","1009032813","F10",  32.70542,-117.29067,"20031009",1352,25,"m","",8.0089,"ug/L","",24.8424,"sigma-t","",6.2334,"mg/L","",33.2422,"ppt","",,"","",13.9,"C","",7.94,"pH","",,"","",84,"%",
"200310WQPL.csv","2008MAY29154821","1009032814","F19",  32.66785,-117.30683,"20031009",1116,60,"m","",1.6699,"ug/L","",25.3013,"sigma-t","",6.057,"mg/L","",33.2869,"ppt","",,"","",11.8,"C","",7.906,"pH","",,"","",92,"%",